User: anonymous   Login
Location: Unspecified
(0.0000°N, 0.0000°E)
Time: 20:47:45
(UTC+00:00)
Language:

STARLINK-5446 - Orbit

View from above orbital plane
View from above orbital plane
View from above satellite
View from above satellite

Ground track
Ground track

The orbit is defined by the following mean orbital elements,

1 54789U          26145.41008176 +.00000000 +00000-0 -72651-4 0 00007
2 54789  53.2149  29.4751 0001339 106.3734 253.7405 15.08836706    07
Epoch (UTC): 25 May 2026 09:50:31
Eccentricity: 0.0001339
inclination: 53.2149°
perigee height: 539 km
apogee height: 541 km
right ascension of ascending node: 29.4751°
argument of perigee: 106.3734°
revolutions per day: 15.08836706
mean anomaly at epoch: 253.7405°

The dashed part of the orbit path shows where the satellite is in the earth's shadow,  

DLR